Theta_e
289 288 287 286 286 286 285 286 285 281 281 283 283 285 285 285 284 284 284 284 285 285 286 287 288 289 289 289 290 290 291 291 291 291 291 291 291 291
287 286 285 285 284 284 283 283 284 284 282 283 283 284 284 282 283 283 283 282 283 284 284 285 287 287 287 287 288 288 289 289 289 289 289 289 290 290
285 285 284 283 282 281 282 282 282 283 282 282 282 283 282 282 283 284 283 283 283 283 283 284 285 285 285 286 286 286 286 286 286 286 287 288 289 289
284 283 282 281 281 281 281 281 282 282 282 280 281 281 281 282 282 282 281 282 282 282 283 284 284 283 283 284 284 284 284 283 283 285 286 287 287 288
283 282 281 281 280 280 280 281 281 279 280 279 279 280 280 281 281 282 282 283 282 283 283 282 281 282 283 282 282 282 281 281 283 283 284 285 285 285
283 282 281 280 280 280 280 281 280 280 279 278 278 278 280 280 280 279 280 282 281 281 282 280 280 281 282 281 281 279 279 281 282 283 282 283 283 284
281 281 281 281 282 282 280 281 279 279 279 278 278 278 278 279 278 280 278 279 280 282 279 279 279 279 279 279 278 279 280 281 281 281 281 281 282 282
280 279 280 280 281 282 283 282 281 280 279 279 279 278 279 279 280 278 278 277 276 282 278 277 278 277 278 278 278 279 280 280 280 280 280 280 281 281
280 279 279 279 281 280 283 283 283 282 282 280 278 279 279 280 280 278 277 278 277 279 277 274 276 276 277 276 278 278 279 279 279 279 279 280 280 280
280 280 280 280 279 278 278 279 280 281 282 283 283 282 282 280 279 279 279 278 278 277 277 271 275 274 275 275 277 277 277 278 278 278 278 278 279 279
280 280 281 280 280 282 279 278 278 279 280 281 282 283 283 283 283 281 278 276 275 276 277 272 273 273 273 273 274 276 276 276 276 277 277 277 278 278
279 279 281 280 282 282 281 280 278 279 279 279 278 279 281 281 282 281 279 276 275 273 275 270 271 271 268 272 272 272 272 274 275 275 276 276 277 275
282 281 281 283 284 284 283 281 281 281 280 280 280 279 279 278 278 278 278 276 273 273 275 272 270 269 268 268 269 271 271 272 272 272 274 275 275 276
283 283 282 283 284 285 284 284 284 284 283 282 280 278 277 276 276 276 275 274 274 273 273 271 268 267 266 265 265 269 270 271 271 270 271 273 274 275
284 283 283 283 283 283 284 284 282 282 281 278 277 276 276 275 274 273 273 272 271 271 270 270 268 267 266 265 265 266 267 268 270 270 270 270 270 272
286 284 283 282 282 282 280 279 278 277 276 276 275 275 274 273 271 271 269 269 267 267 269 268 267 266 264 265 265 265 266 265 269 270 270 270 271 272
280 280 280 279 277 276 276 275 275 274 274 274 272 272 271 270 269 269 268 266 264 264 265 267 267 266 266 265 263 264 266 267 268 268 268 268 270 271
276 277 276 276 276 275 274 273 272 270 271 270 269 269 268 267 267 267 266 265 263 263 263 264 264 263 264 265 268 265 266 266 267 268 268 267 268 271
276 276 277 275 275 273 272 271 270 269 267 267 267 266 266 265 264 264 264 263 263 263 263 263 262 261 259 259 265 268 265 265 267 266 268 268 268 270
275 274 273 272 271 270 268 267 267 266 265 265 265 264 263 263 263 262 262 261 261 261 261 262 262 262 260 259 260 263 268 266 266 265 266 268 270 272
269 270 270 268 267 266 265 264 264 264 264 263 263 262 262 261 261 261 261 259 259 260 259 260 262 262 262 262 260 263 266 269 269 267 267 266 266 267
267 267 265 264 264 263 263 262 262 260 261 261 261 261 261 261 260 260 259 259 260 260 260 261 261 261 261 261 260 261 263 266 268 270 270 269 266 263
264 264 262 262 261 261 261 261 260 262 261 260 260 260 260 259 259 260 260 259 258 258 258 257 259 261 260 260 260 261 262 263 265 265 267 270 270 270
Wind_Speed
8 8 7 5 5 5 4 2 2 4 6 5 4 5 4 3 2 6 7 10 15 14 16 18 19 21 22 22 24 28 30 31 31 33 33 34 35 37
7 9 8 6 6 5 4 3 2 2 3 2 3 2 3 4 3 6 8 12 12 13 15 18 19 21 21 23 26 28 29 30 31 32 32 34 35 36
10 10 9 9 6 5 4 4 3 2 3 2 2 2 4 5 5 6 7 9 8 13 15 17 19 19 20 23 27 28 29 29 30 31 33 35 33 35
12 11 11 6 7 6 5 5 4 4 3 5 2 3 5 6 7 9 8 7 9 12 15 18 19 17 21 25 27 27 27 28 28 31 33 32 32 33
12 12 12 10 7 6 6 6 4 3 4 3 3 2 3 5 8 8 9 9 8 13 16 17 14 18 23 25 25 25 25 27 31 31 31 30 32 34
11 10 10 9 8 9 7 7 6 5 5 5 5 6 6 6 7 9 9 8 10 9 12 8 13 19 22 21 23 22 24 29 31 30 30 31 33 32
10 8 7 7 9 9 6 8 7 6 5 5 6 7 8 8 8 7 10 10 11 11 8 7 10 11 12 17 17 22 28 29 28 29 32 31 31 31
10 7 6 7 9 13 14 10 9 8 8 6 7 9 11 9 8 9 10 10 11 5 9 13 9 11 12 11 21 26 30 27 27 31 31 31 31 31
9 8 6 5 8 8 13 15 14 15 14 8 10 10 12 10 10 11 12 11 11 9 9 15 10 12 12 12 24 27 25 24 30 30 31 30 31 29
9 9 9 9 10 8 8 8 8 9 10 9 11 11 11 11 10 11 13 11 10 8 10 11 10 13 12 12 24 20 21 28 29 30 30 30 28 28
8 9 9 8 11 15 9 9 10 9 9 17 19 20 20 20 18 7 6 9 10 10 7 9 10 12 12 12 10 19 27 24 30 30 29 27 26 28
7 8 12 11 15 17 12 10 9 9 8 8 8 11 14 12 16 11 9 10 10 11 2 5 9 9 9 9 10 12 12 24 28 29 25 24 26 13
8 8 7 19 20 19 20 10 11 6 8 8 8 7 7 7 7 7 8 8 10 11 8 5 8 10 9 13 11 11 12 13 13 15 20 24 27 22
9 7 6 15 17 20 16 18 18 14 7 7 4 4 5 6 7 6 8 9 8 11 10 9 8 10 10 12 14 11 13 12 12 12 12 19 23 24
6 9 13 14 17 14 17 16 11 6 5 5 6 7 6 5 7 7 7 7 9 9 9 11 9 10 10 11 13 13 15 11 11 11 11 12 12 12
10 9 11 11 11 8 4 3 3 3 3 5 6 5 5 5 6 6 7 8 8 8 7 8 8 10 10 11 11 13 12 10 12 11 11 12 11 11
5 3 5 5 6 6 4 4 3 3 3 3 4 5 5 5 5 5 5 6 7 9 9 7 9 10 10 13 11 10 11 10 11 12 13 12 11 11
4 6 7 7 8 7 6 5 4 3 3 3 3 4 5 5 5 5 4 6 7 8 8 8 9 9 8 9 11 9 10 10 11 12 12 11 10 10
6 6 7 7 6 6 5 4 4 3 2 3 4 4 4 4 4 5 4 5 7 7 7 7 7 7 8 9 7 8 9 11 11 10 10 10 11 11
4 5 5 5 5 5 4 4 4 4 4 4 4 3 3 4 4 4 4 5 6 6 7 6 5 5 6 8 9 11 20 10 10 11 10 10 11 19
3 4 3 4 4 4 4 4 4 4 4 4 4 4 3 4 4 4 5 6 6 6 7 7 5 8 7 7 7 9 9 17 13 11 11 10 11 9
3 3 3 3 3 4 4 4 4 4 5 4 4 4 4 4 5 5 5 5 5 5 7 7 7 6 6 6 9 12 10 11 15 16 11 12 9 9
3 3 4 4 4 4 4 4 4 4 4 4 4 4 4 5 5 5 5 5 5 5 6 7 6 6 6 6 9 9 13 11 9 10 9 14 17 16
Wind_Direction
141 135 127 120 110 105 112 84 149 175 198 182 197 193 214 260 332 308 313 327 320 319 322 327 325 331 331 327 325 323 321 320 319 319 318 315 312 313
145 141 133 129 113 100 94 108 66 189 205 198 195 207 235 261 314 298 310 311 307 305 311 317 321 327 324 323 319 318 318 317 318 317 315 312 313 314
150 147 140 140 130 121 127 125 142 173 218 169 255 268 285 294 296 301 303 302 300 299 308 309 315 318 319 317 314 315 316 316 318 315 313 312 316 312
156 151 148 146 133 155 148 163 176 184 216 245 280 275 266 299 295 294 288 287 287 293 297 305 307 308 313 311 310 311 314 318 313 313 312 312 313 314
162 161 155 153 155 172 173 176 177 179 210 238 266 252 282 291 291 283 284 286 281 290 295 296 295 306 306 307 307 310 313 313 315 313 312 315 315 315
162 162 157 168 173 171 183 190 182 191 209 231 250 264 271 284 284 289 292 293 295 295 284 276 290 308 307 307 308 310 311 315 315 314 316 317 314 314
161 155 173 155 199 188 181 192 187 201 216 233 250 261 263 269 270 295 289 296 297 289 290 294 311 307 309 311 306 316 313 315 314 317 318 315 316 315
164 161 157 178 211 211 214 208 200 201 220 229 248 254 265 272 281 281 288 294 302 280 308 296 312 307 308 315 315 315 313 312 316 320 318 317 315 318
155 166 158 193 208 214 225 228 226 229 233 236 249 257 274 276 279 282 280 281 282 291 302 290 314 300 315 311 315 313 312 311 319 319 318 318 318 315
165 176 184 202 205 200 216 229 233 237 242 243 249 265 275 284 276 272 275 284 282 268 263 277 306 302 309 311 314 311 314 316 316 318 319 319 315 319
183 186 194 204 204 214 218 227 237 241 245 252 257 264 267 269 267 277 264 274 282 288 298 274 294 306 310 304 315 320 316 312 316 318 321 317 319 321
192 199 204 209 222 229 227 220 237 241 236 243 255 265 270 273 274 265 277 275 285 291 332 296 303 316 304 309 320 302 314 309 317 317 318 320 324 319
193 208 213 218 226 231 230 222 234 250 247 248 248 247 249 267 271 268 267 270 279 274 300 309 299 305 289 309 306 311 299 316 311 313 321 325 321 325
202 208 201 216 230 234 231 235 243 250 250 254 250 265 270 276 282 282 281 281 278 284 303 298 288 297 301 298 297 311 307 308 311 314 326 316 323 323
195 199 210 214 228 234 236 239 243 241 236 249 264 280 291 313 315 294 286 291 293 295 295 297 294 297 291 287 298 301 307 314 301 322 313 322 322 317
206 214 209 208 209 214 195 190 175 195 240 263 277 286 294 288 298 308 310 312 309 303 300 289 295 297 290 290 298 295 306 303 311 314 326 314 315 316
131 140 178 171 167 173 182 189 191 200 228 248 272 287 292 298 301 316 317 312 298 302 308 314 310 298 290 290 286 293 305 308 319 325 321 315 319 320
177 185 189 192 201 201 199 191 190 189 227 251 264 273 282 295 300 304 293 289 292 300 307 312 315 315 313 299 259 287 314 319 323 318 321 315 314 327
202 197 201 197 197 189 184 185 189 189 140 228 245 251 262 271 274 281 286 288 289 297 301 311 307 312 318 314 302 316 313 322 316 323 319 318 318 322
185 184 185 179 171 171 170 177 183 180 205 213 221 227 236 251 257 262 274 282 285 294 299 298 291 296 309 307 308 305 306 307 324 321 320 320 314 320
149 159 158 158 159 161 163 170 185 196 192 194 209 215 220 234 247 257 263 261 277 280 289 292 311 321 287 284 272 286 310 316 333 318 323 319 329 325
153 159 151 150 160 171 175 177 180 186 194 206 221 224 228 232 242 245 251 265 267 278 286 298 303 295 284 268 290 304 306 318 319 329 320 333 334 329
160 164 161 170 176 178 177 179 197 208 210 216 220 226 224 233 235 248 256 247 260 271 282 293 300 293 283 284 286 291 303 311 322 328 328 330 334 334